[[{"header":{"parameterUnit":"m.s-1","parameterCategory":1,"la1":30.2991,"la2":30.254,"lo1":-89.0895,"lo2":-89.0444,"dy":0.0017,"dx":0.0017,"nx":28,"ny":28,"refTime":"2023-08-21T21:00:00:Z","depth":0,"parameterNumber":2,"parameterNumberName":"U-component_of_WINDS"},"data":[0,0,0,0,0,0,0,0,0,0,0,0,0,0,0,0,0,0,0,0,0,0,0,0,0,0,0,0,0,0,0,0,0,0,0,0,0,0,0,0,0,0,0,0,0,0,0,0,0,0,0,0,0,0,0,0,0,0,-2.4429,-2.4428,0,-2.437,-2.4369,-2.4368,-2.421,-2.4206,-2.4203,-2.4199,-2.4143,-2.4145,-2.4146,0,0,0,0,0,0,0,0,0,0,0,0,0,-2.4407,-2.4408,-2.4429,-2.4428,-2.4427,-2.437,-2.4369,-2.4368,-2.421,-2.4206,-2.4202,-2.4198,-2.4142,-2.4144,-2.4147,0,0,0,0,0,0,0,0,0,0,0,0,0,-2.4389,-2.4408,-2.4429,-2.4341,-2.4333,-2.437,-2.4369,-2.4368,-2.4211,-2.4206,-2.4201,-2.4196,-2.4142,-2.4144,-2.4147,-2.4265,0,0,-2.4155,-2.4156,0,0,0,0,0,0,0,0,-2.439,-2.439,-2.4355,-2.4347,-2.4338,-2.4292,-2.434,-2.4334,-2.4212,-2.4258,-2.4199,-2.4193,-2.4197,-2.4195,-2.4195,-2.4263,-2.426,-2.4155,-2.4156,-2.4157,-2.4158,0,0,0,0,0,0,0,-2.4392,-2.4392,-2.4405,-2.4355,-2.4344,-2.4306,-2.4298,-2.4338,-2.4257,-2.4253,-2.4241,-2.4236,-2.4191,-2.4193,-2.4192,-2.4259,-2.4155,-2.4157,-2.4158,-2.4159,-2.442,-2.4425,0,0,0,0,0,0,-2.4405,-2.4394,-2.4407,-2.4404,-2.4352,-2.431,-2.4301,-2.4312,-2.4256,-2.4242,-2.4241,-2.4229,-2.4191,-2.419,-2.419,-2.4324,-2.4157,-2.416,-2.4161,-2.4415,-2.4421,-2.4427,0,0,0,0,0,0,-2.4405,-2.4408,-2.441,-2.4396,-2.4393,-2.4316,-2.4329,-2.4313,-2.4315,-2.4247,-2.4232,-2.4257,-2.4187,-2.4186,-2.4247,-2.432,-2.4161,-2.4163,-2.4408,-2.4417,-2.4424,-2.4595,0,0,0,0,0,0,-2.4405,-2.4409,-2.4453,-2.4398,-2.4394,-2.4468,-2.4334,-2.4316,-2.4319,-2.4303,-2.4258,-2.4246,-2.4183,-2.4244,-2.425,-2.4321,-2.4165,-2.4402,-2.4412,-2.4422,-2.4583,-2.4608,-2.463,0,0,0,0,0,-2.4405,-2.4504,-2.4456,-2.4458,-2.4447,-2.4472,-2.447,-2.4395,-2.4326,-2.4369,-2.4325,-2.4247,-2.4311,-2.4252,-2.4257,-2.433,-2.4397,-2.4409,-2.4421,-2.4572,-2.4603,-2.463,0,0,0,0,0,0,-2.4572,-2.4496,-2.4441,-2.4525,-2.4506,-2.4446,-2.4499,-2.4431,-2.4432,-2.4418,-2.4325,-2.4316,-2.439,-2.4365,-2.4301,-2.4441,-2.4341,-2.4355,-2.4455,-2.4483,-2.4507,-2.4512,-2.4167,0,0,0,0,0,-2.4618,-2.4644,-2.4576,-2.4657,-2.465,-2.4577,-2.4585,-2.4528,-2.4505,-2.4497,-2.4457,-2.4439,-2.4455,-2.4468,-2.4478,-2.4578,-2.4566,-2.4631,-2.4654,-2.4674,-2.4687,-2.4738,-2.4766,-2.4467,-2.4467,-2.4467,0,0,-2.4715,-2.4676,-2.4698,-2.4689,-2.4668,-2.4698,-2.4571,-2.4608,-2.4629,-2.4503,-2.4557,-2.4528,-2.4502,-2.4583,-2.4616,-2.4564,-2.4767,-2.4689,-2.4706,-2.4708,-2.4753,-2.4782,-2.4807,-2.4475,-2.4474,-2.4473,0,0,-2.4905,-2.4879,-2.4943,-2.4923,-2.4892,-2.4842,-2.4858,-2.4807,-2.4782,-2.4835,-2.474,-2.4765,-2.4794,-2.4779,-2.4775,-2.4959,-2.4887,-2.4965,-2.5089,-2.5139,-2.5163,-2.5183,-2.5249,-2.5274,-2.4978,-2.4979,-2.4979,0,-2.503,-2.507,-2.4985,-2.5027,-2.5026,-2.4911,-2.4975,-2.4961,-2.4936,-2.4939,-2.488,-2.4914,-2.4888,-2.4964,-2.5008,-2.5009,-2.5024,-2.497,-2.5166,-2.5186,-2.5204,-2.5266,-2.5291,-2.4988,-2.4987,-2.4986,-2.4985,0,-2.5224,-2.5253,-2.5309,-2.5285,-2.529,-2.5344,-2.5268,-2.5283,-2.5226,-2.5182,-2.5238,-2.5202,-2.5204,-2.5217,-2.5162,-2.5285,-2.5254,-2.5183,-2.508,-2.5243,-2.53,-2.5323,-2.5002,-2.4999,-2.4996,-2.4993,0,0,-2.5521,-2.5447,-2.547,-2.5457,-2.5413,-2.5435,-2.5483,-2.5482,-2.5498,-2.5484,-2.5522,-2.5549,-2.5482,-2.5478,-2.542,-2.5464,-2.5612,-2.5387,-2.5385,-2.5431,-2.5746,-2.5801,-2.5829,-2.5564,-2.5568,-2.5571,-2.5748,0,-2.5701,-2.5778,-2.5702,-2.5795,-2.5821,-2.5711,-2.5753,-2.5731,-2.5691,-2.5708,-2.5664,-2.5685,-2.5595,-2.5591,-2.563,-2.5586,-2.5675,-2.5572,-2.56,-2.5602,-2.5611,-2.5859,-2.5917,-2.6086,-2.577,-2.5773,-2.5776,0,-2.5922,-2.5917,-2.6012,-2.596,-2.5968,-2.6008,-2.6,-2.6017,-2.5991,-2.5958,-2.5953,-2.5882,-2.5926,-2.5826,-2.5886,-2.5818,-2.5825,-2.5805,-2.581,-2.581,-2.57,-2.5867,-2.6137,-2.6164,-2.581,-2.5807,-2.5805,0,-2.6129,-2.6146,-2.6204,-2.6197,-2.6139,-2.6169,-2.6146,-2.6114,-2.6118,-2.6112,-2.6114,-2.6115,-2.6115,-2.6118,-2.6049,-2.5982,-2.6118,-2.6011,-2.6093,-2.6095,-2.6128,-2.6127,-2.6405,-2.6131,-2.6131,-2.6131,-2.613,0,-2.6339,-2.6402,-2.6296,-2.6333,-2.6399,-2.6312,-2.6381,-2.6347,-2.6319,-2.6347,-2.6252,-2.6281,-2.6188,-2.6207,-2.6153,-2.6211,-2.6212,-2.6188,-2.6174,-2.6197,-2.6201,-2.6201,-2.6188,-2.6137,-2.6136,-2.6134,-2.6133,0,-2.6583,-2.6514,-2.6571,-2.651,-2.6497,-2.6549,-2.6497,-2.6529,-2.6482,-2.6519,-2.6523,-2.645,-2.6467,-2.6398,-2.6405,-2.6368,-2.6455,-2.642,-2.6464,-2.6454,-2.654,-2.6533,-2.6828,-2.6863,-2.6567,-2.657,-2.6573,0,-2.6722,-2.6767,-2.6711,-2.6722,-2.6704,-2.6724,-2.6727,-2.6642,-2.665,-2.6622,-2.6657,-2.6666,-2.6669,-2.6703,-2.6651,-2.6656,-2.6621,-2.6724,-2.6621,-2.6643,-2.6623,-2.6622,-2.6626,-2.6746,-2.6749,-2.6752,-2.6755,0,-2.6977,-2.694,-2.6947,-2.6943,-2.695,-2.6943,-2.693,-2.6945,-2.6853,-2.6866,-2.6882,-2.6885,-2.689,-2.6901,-2.6894,-2.6871,-2.6799,-2.6787,-2.6806,-2.6832,-2.6856,-2.6844,-2.6523,-2.6781,-2.6779,-2.6777,-2.6775,-2.6774,-2.7172,-2.7207,-2.7172,-2.7184,-2.7164,-2.7154,-2.718,-2.7136,-2.7147,-2.7144,-2.7093,-2.7119,-2.709,-2.7073,-2.7057,-2.7077,-2.7029,-2.7057,-2.7064,-2.7073,-2.7088,-2.6852,-2.7076,-2.7075,-2.7074,-2.7073,-2.7073,0,-2.7422,-2.7393,-2.7405,-2.7388,-2.7398,-2.7326,-2.7307,-2.732,-2.7344,-2.7322,-2.7326,-2.7344,-2.7354,-2.7303,-2.7305,-2.7331,-2.7298,-2.7335,-2.7333,-2.7329,-2.713,-2.7114,-2.7362,-2.7362,-2.7362,-2.7362,-2.7362,-2.7362,-2.7553,-2.7608,-2.7567,-2.7612,-2.7582,-2.7606,-2.7602,-2.7592,-2.7573,-2.7598,-2.7605,-2.757,-2.7537,-2.7536,-2.7542,-2.7526,-2.7532,-2.7581,-2.7555,-2.7371,-2.7343,-2.7316,-2.73,-2.7583,-2.7583,-2.7751,-2.7753,-2.7754]},{"header":{"parameterUnit":"m.s-1","parameterCategory":1,"la1":30.2991,"la2":30.254,"lo1":-89.0895,"lo2":-89.0444,"dy":0.0017,"dx":0.0017,"nx":28,"ny":28,"refTime":"2023-08-21T21:00:00:Z","depth":0,"parameterNumber":3,"parameterNumberName":"V-component_of_WINDS"},"data":[0,0,0,0,0,0,0,0,0,0,0,0,0,0,0,0,0,0,0,0,0,0,0,0,0,0,0,0,0,0,0,0,0,0,0,0,0,0,0,0,0,0,0,0,0,0,0,0,0,0,0,0,0,0,0,0,0,0,-2.4456,-2.4457,0,-2.4521,-2.4521,-2.4522,-2.4539,-2.4539,-2.4538,-2.4538,-2.4599,-2.4601,-2.4603,0,0,0,0,0,0,0,0,0,0,0,0,0,-2.4342,-2.4344,-2.4456,-2.4457,-2.4457,-2.452,-2.4521,-2.4522,-2.4539,-2.4539,-2.4538,-2.4538,-2.4598,-2.4601,-2.4603,0,0,0,0,0,0,0,0,0,0,0,0,0,-2.4397,-2.4344,-2.4456,-2.4474,-2.4476,-2.452,-2.4521,-2.4522,-2.4539,-2.4539,-2.4538,-2.4538,-2.4598,-2.4601,-2.4603,-2.4633,0,0,-2.4613,-2.4614,0,0,0,0,0,0,0,0,-2.4394,-2.4401,-2.447,-2.4472,-2.4475,-2.4521,-2.4504,-2.4559,-2.4539,-2.4515,-2.4538,-2.4537,-2.4573,-2.4578,-2.4591,-2.4636,-2.4639,-2.4613,-2.4615,-2.4616,-2.4617,0,0,0,0,0,0,0,-2.439,-2.4399,-2.4481,-2.4471,-2.4474,-2.4477,-2.4484,-2.4514,-2.4546,-2.4517,-2.4518,-2.4526,-2.4574,-2.4589,-2.4593,-2.4639,-2.4613,-2.4615,-2.4617,-2.4618,-2.4711,-2.4711,0,0,0,0,0,0,-2.4384,-2.4395,-2.4479,-2.4483,-2.4433,-2.4479,-2.4487,-2.4507,-2.4546,-2.4552,-2.4527,-2.4527,-2.4584,-2.459,-2.4595,-2.4632,-2.4616,-2.4619,-2.462,-2.471,-2.4711,-2.4711,0,0,0,0,0,0,-2.4381,-2.4391,-2.4477,-2.444,-2.4451,-2.4482,-2.4504,-2.4508,-2.4523,-2.4553,-2.4559,-2.4535,-2.4584,-2.4591,-2.4624,-2.4634,-2.462,-2.4623,-2.4709,-2.471,-2.4711,-2.4706,0,0,0,0,0,0,-2.4378,-2.439,-2.4403,-2.444,-2.4453,-2.4506,-2.4504,-2.451,-2.4528,-2.4529,-2.4563,-2.4568,-2.4584,-2.4619,-2.4627,-2.4638,-2.4625,-2.4708,-2.471,-2.4711,-2.4705,-2.4707,-2.4708,0,0,0,0,0,-2.4374,-2.4398,-2.4404,-2.4414,-2.447,-2.4506,-2.4513,-2.4532,-2.4529,-2.4541,-2.4561,-2.4567,-2.4632,-2.4622,-2.4631,-2.4643,-2.4708,-2.4709,-2.4711,-2.4705,-2.4706,-2.4708,0,0,0,0,0,0,-2.436,-2.4403,-2.441,-2.4447,-2.4473,-2.4509,-2.4525,-2.4533,-2.4559,-2.4559,-2.458,-2.4587,-2.4618,-2.4634,-2.4623,-2.4674,-2.467,-2.4673,-2.4662,-2.4664,-2.4665,-2.466,-2.4627,0,0,0,0,0,-2.4361,-2.4389,-2.4425,-2.4454,-2.4467,-2.4494,-2.451,-2.4523,-2.455,-2.456,-2.4582,-2.4607,-2.4633,-2.4649,-2.4675,-2.4708,-2.4715,-2.4721,-2.4722,-2.4723,-2.4725,-2.4742,-2.4745,-2.4716,-2.4716,-2.4716,0,0,-2.4364,-2.4391,-2.4407,-2.4452,-2.4473,-2.45,-2.4503,-2.4531,-2.455,-2.4564,-2.4597,-2.4614,-2.4642,-2.4675,-2.469,-2.4689,-2.4735,-2.4725,-2.4725,-2.4727,-2.4744,-2.4747,-2.4749,-2.4717,-2.4717,-2.4717,0,0,-2.4382,-2.4406,-2.4433,-2.4455,-2.4488,-2.4506,-2.4512,-2.4547,-2.456,-2.4593,-2.4604,-2.4627,-2.4671,-2.4691,-2.4707,-2.4733,-2.4739,-2.4741,-2.4747,-2.4764,-2.4766,-2.4768,-2.4776,-2.4779,-2.4743,-2.4743,-2.4743,0,-2.4381,-2.4423,-2.4445,-2.4473,-2.4492,-2.4507,-2.4534,-2.4553,-2.4592,-2.4604,-2.4603,-2.4659,-2.4679,-2.4717,-2.4723,-2.4736,-2.4742,-2.4736,-2.4764,-2.4766,-2.4769,-2.4777,-2.478,-2.4743,-2.4743,-2.4743,-2.4743,0,-2.4419,-2.4448,-2.4465,-2.4505,-2.4526,-2.4552,-2.4577,-2.4595,-2.4605,-2.4623,-2.4656,-2.4681,-2.4712,-2.4722,-2.4732,-2.476,-2.4758,-2.476,-2.4756,-2.4771,-2.4779,-2.4782,-2.4743,-2.4743,-2.4743,-2.4743,0,0,-2.443,-2.4482,-2.4487,-2.4505,-2.4543,-2.4565,-2.4592,-2.4624,-2.4638,-2.4665,-2.4687,-2.4724,-2.4727,-2.4744,-2.4757,-2.4772,-2.479,-2.4772,-2.4773,-2.4773,-2.4821,-2.4819,-2.4822,-2.4794,-2.4795,-2.4796,-2.4819,0,-2.4452,-2.4503,-2.4523,-2.4563,-2.459,-2.4605,-2.4628,-2.4653,-2.467,-2.4693,-2.4711,-2.4738,-2.4739,-2.475,-2.4765,-2.4784,-2.4799,-2.4783,-2.4813,-2.4814,-2.4805,-2.4827,-2.4825,-2.4845,-2.4822,-2.4822,-2.4823,0,-2.4485,-2.4513,-2.4557,-2.4591,-2.4603,-2.4624,-2.4654,-2.4677,-2.4705,-2.4716,-2.4737,-2.4749,-2.4776,-2.4771,-2.4808,-2.4796,-2.481,-2.4821,-2.4822,-2.4825,-2.4819,-2.4829,-2.4852,-2.4855,-2.4828,-2.4828,-2.4827,0,-2.4487,-2.4536,-2.4568,-2.4583,-2.4625,-2.4639,-2.4656,-2.4684,-2.4702,-2.4728,-2.4739,-2.4768,-2.4783,-2.4804,-2.4822,-2.4817,-2.4857,-2.4854,-2.4865,-2.4865,-2.4872,-2.4871,-2.4897,-2.4882,-2.4882,-2.4882,-2.4882,0,-2.4509,-2.4535,-2.457,-2.4589,-2.4618,-2.4641,-2.4668,-2.4686,-2.4711,-2.4733,-2.4748,-2.4768,-2.4792,-2.4814,-2.4829,-2.4856,-2.4863,-2.4872,-2.4875,-2.487,-2.4869,-2.4878,-2.4877,-2.4883,-2.4883,-2.4883,-2.4883,0,-2.4516,-2.4541,-2.4577,-2.4614,-2.4623,-2.4643,-2.4673,-2.4692,-2.471,-2.4738,-2.4746,-2.4773,-2.4801,-2.4822,-2.4857,-2.4867,-2.4896,-2.49,-2.4887,-2.4888,-2.4898,-2.4897,-2.493,-2.4935,-2.4918,-2.4918,-2.4918,0,-2.4528,-2.4549,-2.4588,-2.4605,-2.4623,-2.465,-2.4668,-2.4691,-2.4709,-2.4743,-2.4757,-2.4786,-2.4811,-2.4854,-2.4876,-2.4902,-2.4907,-2.4916,-2.491,-2.4905,-2.4906,-2.4904,-2.4905,-2.4917,-2.4917,-2.4917,-2.4917,0,-2.4547,-2.4558,-2.4586,-2.4617,-2.4639,-2.4665,-2.469,-2.4702,-2.473,-2.4749,-2.4779,-2.4798,-2.4834,-2.4862,-2.4891,-2.4908,-2.4916,-2.4919,-2.4923,-2.4917,-2.4909,-2.4913,-2.4888,-2.4918,-2.4918,-2.4918,-2.4917,-2.4917,-2.4556,-2.4575,-2.4606,-2.4635,-2.4657,-2.4681,-2.47,-2.4721,-2.4747,-2.478,-2.4791,-2.4821,-2.4848,-2.4888,-2.4905,-2.4927,-2.4927,-2.4933,-2.4934,-2.4935,-2.4934,-2.4906,-2.4933,-2.4933,-2.4933,-2.4933,-2.4933,0,-2.4575,-2.4596,-2.4623,-2.4659,-2.4682,-2.469,-2.4719,-2.4737,-2.4764,-2.4789,-2.4813,-2.4846,-2.4873,-2.4898,-2.4926,-2.4939,-2.4943,-2.4945,-2.4944,-2.4947,-2.4933,-2.4927,-2.4941,-2.4941,-2.4941,-2.4941,-2.4941,-2.4941,-2.4587,-2.4619,-2.4634,-2.4676,-2.4697,-2.4727,-2.4743,-2.4764,-2.4784,-2.4821,-2.4845,-2.4861,-2.4886,-2.4916,-2.494,-2.4947,-2.4956,-2.4957,-2.4964,-2.495,-2.4949,-2.4947,-2.4941,-2.4959,-2.4959,-2.4976,-2.4976,-2.4977]}]]